TimeCDT,TemperatureF,Dew PointF,Humidity,Sea Level PressureIn,VisibilityMPH,Wind Direction,Wind SpeedMPH,Gust SpeedMPH,PrecipitationIn,Events,Conditions,WindDirDegrees,DateUTC
12:15 AM,41.0,39.2,93,29.27,4.0,SW,11.5,-,N/A,,Overcast,220,2013-04-19 05:15:00
12:35 AM,42.8,42.8,100,29.26,7.0,SW,12.7,17.3,N/A,,Overcast,220,2013-04-19 05:35:00
12:55 AM,44.6,41.0,87,29.25,5.0,SW,10.4,16.1,N/A,,Overcast,230,2013-04-19 05:55:00
1:35 AM,42.8,39.2,87,29.24,10.0,SW,10.4,-,N/A,,Overcast,220,2013-04-19 06:35:00
1:55 AM,42.8,39.2,87,29.23,10.0,SSW,11.5,-,N/A,,Overcast,200,2013-04-19 06:55:00
2:15 AM,39.2,37.4,93,29.23,10.0,SW,11.5,19.6,N/A,,Overcast,230,2013-04-19 07:15:00
2:35 AM,39.2,37.4,93,29.24,5.0,SW,15.0,20.7,0.01,,Overcast,220,2013-04-19 07:35:00
2:55 AM,39.2,35.6,87,29.23,10.0,SW,12.7,18.4,0.01,,Overcast,230,2013-04-19 07:55:00
3:15 AM,39.2,35.6,87,29.22,10.0,SSW,17.3,28.8,N/A,,Overcast,210,2013-04-19 08:15:00
3:35 AM,37.4,35.6,93,29.21,10.0,SW,17.3,26.5,N/A,,Overcast,220,2013-04-19 08:35:00
3:55 AM,35.6,35.6,100,29.20,10.0,SW,17.3,25.3,N/A,,Mostly Cloudy,220,2013-04-19 08:55:00
4:15 AM,39.2,33.8,81,29.21,10.0,SW,16.1,23.0,N/A,,Overcast,220,2013-04-19 09:15:00
4:35 AM,37.4,33.8,87,29.20,10.0,SSW,18.4,26.5,N/A,,Overcast,210,2013-04-19 09:35:00
4:55 AM,35.6,33.8,93,29.19,10.0,SW,19.6,24.2,N/A,,Overcast,220,2013-04-19 09:55:00
5:15 AM,35.6,33.8,93,29.19,10.0,SW,15.0,-,N/A,,Overcast,220,2013-04-19 10:15:00
5:55 AM,35.6,32.0,87,29.18,10.0,SW,16.1,-,N/A,,Overcast,220,2013-04-19 10:55:00
6:15 AM,35.6,30.2,81,29.18,10.0,SW,12.7,21.9,N/A,,Overcast,230,2013-04-19 11:15:00
6:35 AM,35.6,30.2,81,29.18,10.0,SW,17.3,23.0,N/A,,Overcast,230,2013-04-19 11:35:00
6:55 AM,35.6,30.2,81,29.18,10.0,SW,18.4,24.2,N/A,,Overcast,230,2013-04-19 11:55:00
7:15 AM,35.6,30.2,81,29.17,10.0,SW,15.0,21.9,N/A,,Overcast,230,2013-04-19 12:15:00
7:35 AM,35.6,30.2,81,29.17,10.0,SW,12.7,25.3,N/A,,Overcast,230,2013-04-19 12:35:00
7:55 AM,35.6,28.4,75,29.16,10.0,WSW,15.0,25.3,N/A,,Overcast,240,2013-04-19 12:55:00
8:15 AM,35.6,28.4,75,29.16,10.0,SW,15.0,25.3,N/A,,Overcast,230,2013-04-19 13:15:00
8:35 AM,35.6,30.2,81,29.15,10.0,SW,12.7,25.3,N/A,,Overcast,230,2013-04-19 13:35:00
8:55 AM,35.6,28.4,75,29.15,10.0,WSW,13.8,20.7,N/A,,Overcast,240,2013-04-19 13:55:00
9:15 AM,35.6,30.2,81,29.15,10.0,WSW,12.7,23.0,N/A,,Overcast,240,2013-04-19 14:15:00
9:55 AM,35.6,32.0,87,29.15,10.0,WSW,12.7,20.7,N/A,,Overcast,240,2013-04-19 14:55:00
10:15 AM,35.6,32.0,87,29.16,8.0,West,9.2,19.6,N/A,,Overcast,270,2013-04-19 15:15:00
10:35 AM,33.8,32.0,93,29.17,8.0,West,10.4,17.3,N/A,,Mostly Cloudy,280,2013-04-19 15:35:00
10:55 AM,35.6,30.2,81,29.19,7.0,WNW,8.1,20.7,N/A,,Mostly Cloudy,290,2013-04-19 15:55:00
11:15 AM,33.8,30.2,87,29.20,2.5,WNW,10.4,19.6,N/A,,Overcast,290,2013-04-19 16:15:00
11:35 AM,35.6,28.4,75,29.22,10.0,WNW,12.7,21.9,N/A,,Mostly Cloudy,300,2013-04-19 16:35:00
11:55 AM,35.6,28.4,75,29.23,10.0,WNW,11.5,23.0,N/A,,Overcast,290,2013-04-19 16:55:00
12:15 PM,35.6,24.8,65,29.25,10.0,WNW,13.8,24.2,N/A,,Mostly Cloudy,290,2013-04-19 17:15:00
12:35 PM,35.6,24.8,65,29.26,10.0,NW,13.8,23.0,N/A,,Overcast,310,2013-04-19 17:35:00
12:55 PM,35.6,24.8,65,29.27,10.0,WNW,13.8,23.0,N/A,,Overcast,300,2013-04-19 17:55:00
1:15 PM,35.6,23.0,60,29.28,10.0,WNW,17.3,27.6,N/A,,Overcast,300,2013-04-19 18:15:00
1:35 PM,35.6,21.2,56,29.30,10.0,WNW,13.8,26.5,N/A,,Overcast,290,2013-04-19 18:35:00
1:55 PM,35.6,19.4,52,29.32,10.0,West,17.3,31.1,N/A,,Overcast,280,2013-04-19 18:55:00
2:15 PM,37.4,19.4,48,29.33,10.0,WNW,17.3,27.6,N/A,,Overcast,290,2013-04-19 19:15:00
2:35 PM,37.4,19.4,48,29.35,10.0,West,18.4,28.8,N/A,,Overcast,280,2013-04-19 19:35:00
2:55 PM,37.4,19.4,48,29.36,10.0,WNW,11.5,23.0,N/A,,Overcast,300,2013-04-19 19:55:00
3:15 PM,37.4,17.6,45,29.38,10.0,NW,19.6,29.9,N/A,,Overcast,310,2013-04-19 20:15:00
3:35 PM,35.6,15.8,44,29.40,10.0,NW,16.1,29.9,N/A,,Overcast,310,2013-04-19 20:35:00
3:55 PM,35.6,12.2,38,29.43,10.0,WNW,18.4,34.5,N/A,,Overcast,300,2013-04-19 20:55:00
4:15 PM,35.6,15.8,44,29.45,10.0,WNW,16.1,23.0,N/A,,Overcast,300,2013-04-19 21:15:00
4:35 PM,33.8,15.8,48,29.48,10.0,WNW,13.8,27.6,N/A,,Overcast,300,2013-04-19 21:35:00
4:55 PM,33.8,15.8,48,29.50,10.0,NW,17.3,24.2,N/A,,Overcast,310,2013-04-19 21:55:00
5:15 PM,33.8,15.8,48,29.52,10.0,WNW,17.3,24.2,N/A,,Overcast,300,2013-04-19 22:15:00
5:35 PM,32.0,15.8,51,29.55,10.0,NW,12.7,21.9,N/A,,Overcast,310,2013-04-19 22:35:00
5:55 PM,32.0,15.8,51,29.56,10.0,NNW,19.6,27.6,N/A,,Mostly Cloudy,340,2013-04-19 22:55:00
6:15 PM,30.2,12.2,47,29.58,10.0,NW,13.8,25.3,N/A,,Mostly Cloudy,320,2013-04-19 23:15:00
6:35 PM,30.2,15.8,55,29.60,10.0,NNW,16.1,23.0,N/A,,Overcast,340,2013-04-19 23:35:00
6:55 PM,30.2,15.8,55,29.61,10.0,NW,9.2,21.9,N/A,,Overcast,310,2013-04-19 23:55:00
7:15 PM,28.4,14.0,55,29.63,10.0,NNW,13.8,27.6,N/A,,Overcast,330,2013-04-20 00:15:00
7:35 PM,28.4,15.8,59,29.65,10.0,NNW,10.4,25.3,N/A,,Overcast,330,2013-04-20 00:35:00
7:55 PM,28.4,14.0,55,29.66,10.0,NW,12.7,20.7,N/A,,Overcast,320,2013-04-20 00:55:00
8:15 PM,28.4,14.0,55,29.68,10.0,NW,11.5,19.6,N/A,,Overcast,320,2013-04-20 01:15:00
8:35 PM,28.4,15.8,59,29.70,10.0,NW,15.0,23.0,N/A,,Overcast,320,2013-04-20 01:35:00
8:55 PM,28.4,15.8,59,29.72,10.0,NNW,11.5,17.3,N/A,,Overcast,330,2013-04-20 01:55:00
9:15 PM,26.6,15.8,64,29.73,10.0,NNW,13.8,26.5,N/A,,Overcast,330,2013-04-20 02:15:00
9:35 PM,26.6,15.8,64,29.75,10.0,NNW,16.1,23.0,N/A,,Overcast,340,2013-04-20 02:35:00
9:55 PM,26.6,15.8,64,29.77,10.0,NNW,15.0,23.0,N/A,,Overcast,340,2013-04-20 02:55:00
10:15 PM,24.8,15.8,69,29.78,10.0,North,13.8,21.9,N/A,,Mostly Cloudy,350,2013-04-20 03:15:00
10:35 PM,24.8,15.8,69,29.79,10.0,NNW,10.4,18.4,N/A,,Mostly Cloudy,330,2013-04-20 03:35:00
10:55 PM,24.8,14.0,64,29.80,10.0,NNW,10.4,19.6,N/A,,Overcast,340,2013-04-20 03:55:00
11:15 PM,24.8,14.0,64,29.81,10.0,NW,9.2,19.6,N/A,,Overcast,320,2013-04-20 04:15:00
11:35 PM,24.8,12.2,59,29.82,10.0,NNW,12.7,25.3,N/A,,Overcast,340,2013-04-20 04:35:00
11:55 PM,24.8,12.2,59,29.83,10.0,NNW,9.2,21.9,N/A,,Mostly Cloudy,330,2013-04-20 04:55:00